Regional Weather Roundup
Issued by NWS Sioux Falls, SD

Home | Current Version | Previous Version | Graphics & Text | Print | Product List | Glossary Off
Versions: 1 2 3 4 5 6 7 8 9 10 11 12 13 14 15 16 17 18 19 20 21 22 23 24 25 26 27 28 29 30 31 32 33 34 35 36 37 38 39 40 41 42 43 44 45 46 47 48 49 50

000
ASUS43 KFSD 261310
RWRFSD

WEATHER ROUNDUP FOR SE SOUTH DAKOTA/SW MINNESOTA/NW IOWA
NATIONAL WEATHER SERVICE SIOUX FALLS SD
700 AM CST SUN FEB 26 2017

NOTE: "FAIR" INDICATES FEW OR NO CLOUDS BELOW 12,000 FEET WITH NO
SIGNIFICANT WEATHER AND OR OBSTRUCTIONS TO VISIBILITY.


SDZ038>040-050-052>070-261400-
SOUTHEAST SOUTH DAKOTA

CITY           SKY/WX    TMP DP  RH WIND       PRES   REMARKS
BROOKINGS      CLEAR     24  21  88 W12       29.73R WCI  13
CHAMBERLAIN    CLEAR     22  19  87 W7        29.80R WCI  13
HURON          CLEAR     20  19  96 W8        29.78R WCI  10
MADISON        FAIR      21  21 100 W9        29.74R WCI  11
MITCHELL       CLEAR     22  18  85 W10       29.80R WCI  11
SIOUX FALLS    PTCLDY    18  15  88 W5        29.77R WCI  11
WINNER         FAIR      21  14  74 SW10      29.79R WCI  10
YANKTON        CLEAR     19   9  63 W9        29.82R WCI   9
$$

MNZ071-072-080-081-089-090-097-098-261400-
SOUTHWEST MINNESOTA

CITY           SKY/WX    TMP DP  RH WIND       PRES   REMARKS
FAIRMONT       CLEAR     18  15  88 SW13      29.76S WCI   5
JACKSON        CLEAR     19  16  86 SW9       29.76R WCI   9
LUVERNE        PTCLDY    19  14  79 CALM      29.78R
MARSHALL       PTCLDY    25  20  81 NW6       29.74R WCI  18
MONTEVIDEO     PTCLDY    25  21  86 W3        29.74R
PIPESTONE      CLOUDY    23  18  80 W7        29.74S WCI  15
REDWOOD FALLS  CLOUDY    25  20  81 W7        29.73S WCI  17
TRACY          PTCLDY    26  22  85 W10G16    29.73R WCI  17
WINDOM         CLEAR     19  16  86 SW7       29.74R WCI  10
WORTHINGTON    CLEAR     20  16  84 SW15      29.75R WCI   6
$$

IAZ001>003-012>014-020>022-031-032-NEZ013-014-SDZ071-261400-
NORTHWEST IOWA

CITY           SKY/WX    TMP DP  RH WIND       PRES   REMARKS
CHEROKEE       CLEAR     18  16  93 S5        29.81S WCI  11
DENISON        CLEAR     21  18  86 S6        29.83R WCI  14
ESTHERVILLE    CLEAR     17  14  88 SW16      29.77R WCI   2
LE MARS        CLEAR     18  14  86 S6        29.82S WCI   9
SHELDON        CLEAR     18  18 100 S6        29.77F WCI   9
SIOUX CITY     CLEAR     18  11  74 W8        29.84R WCI   8
SPENCER        CLEAR     14  11  87 SW6       29.79R WCI   5
STORM LAKE     CLEAR     19  16  86 SW12      29.80S WCI   7
$$

ABBREVIATIONS USED IN REMARKS
   TC - TEMPERATURE IN CELSIUS
  WCI - WIND CHILL INDEX
   HX - HEAT INDEX
  VSB - VISIBILITY




USA.gov is the U.S. government's official web portal to all federal, state and local government web resources and services.